,,Stat6,,Stat2,,Stat8,,Stat9,,Stat10,,Wind1,,Wind1,
time,status,PA1M_AVG,status,PR1M_SUM,status,RH1M_AVG,status,SR1M_AVG,status,TA1M_AVG,status,W1dAve1m,status,W1sAve1m,
2007-10-06, 00:00:00,VALID,917.095,VALID,0,VALID,99.4942,VALID,0,VALID,20.9614,VALID,5,VALID,0,
2007-10-06, 00:01:00,VALID,917.111,VALID,0,VALID,99.4942,VALID,-0.0339617,VALID,20.9422,VALID,5,VALID,0,
2007-10-06, 00:02:00,VALID,917.109,VALID,0,VALID,99.5921,VALID,-0.0169808,VALID,20.939,VALID,5,VALID,0,
2007-10-06, 00:03:00,VALID,917.102,VALID,0,VALID,99.6722,VALID,-0.0509425,VALID,20.9422,VALID,5,VALID,0,
2007-10-06, 00:04:00,VALID,917.094,VALID,0,VALID,99.7688,VALID,-0.0339617,VALID,20.9292,VALID,5,VALID,0.0763889,
2007-10-06, 00:05:00,VALID,917.066,VALID,0,VALID,99.91,VALID,0,VALID,20.9257,VALID,5,VALID,0.0338542,
2007-10-06, 00:06:00,VALID,917.051,VALID,0,VALID,99.9746,VALID,-0.0169808,VALID,20.926,VALID,5,VALID,0.000181686,
2007-10-06, 00:07:00,VALID,917.032,VALID,0,VALID,100,VALID,-0.0169808,VALID,20.9387,VALID,5,VALID,0.00106534,
2007-10-06, 00:08:00,VALID,916.999,VALID,0,VALID,100,VALID,-0.0169808,VALID,20.9614,VALID,5,VALID,0,
2007-10-06, 00:09:00,VALID,916.959,VALID,0,VALID,100,VALID,-0.0169808,VALID,20.9682,VALID,5,VALID,0,
2007-10-06, 00:10:00,VALID,916.915,VALID,0,VALID,100,VALID,-0.0339617,VALID,20.9839,VALID,5,VALID,0,
2007-10-06, 00:11:00,VALID,916.875,VALID,0,VALID,99.9853,VALID,-0.0169808,VALID,20.9874,VALID,5,VALID,0.145633,
2007-10-06, 00:12:00,VALID,916.839,VALID,0,VALID,99.8922,VALID,0,VALID,20.9744,VALID,5,VALID,0.386364,
2007-10-06, 00:13:00,VALID,916.828,VALID,0,VALID,99.9138,VALID,0.0339617,VALID,20.9614,VALID,5,VALID,0.364139,
2007-10-06, 00:14:00,VALID,916.831,VALID,0,VALID,99.9735,VALID,0,VALID,20.9517,VALID,3,VALID,0.351004,
2007-10-06, 00:15:00,VALID,916.836,VALID,0,VALID,99.9916,VALID,0,VALID,20.9482,VALID,291,VALID,0.236235,
2007-10-06, 00:16:00,VALID,916.85,VALID,0,VALID,100,VALID,0,VALID,20.9482,VALID,240,VALID,0.408482,
2007-10-06, 00:17:00,VALID,916.851,VALID,0,VALID,100,VALID,-0.0169808,VALID,20.9584,VALID,233,VALID,0.286585,
2007-10-06, 00:18:00,VALID,916.833,VALID,0,VALID,100,VALID,-0.0169808,VALID,20.9779,VALID,233,VALID,0.0948153,
2007-10-06, 00:19:00,VALID,916.837,VALID,0,VALID,100,VALID,-0.0339617,VALID,20.9712,VALID,233,VALID,0.150534,
2007-10-06, 00:20:00,VALID,916.846,VALID,0,VALID,100,VALID,-0.0169808,VALID,20.9747,VALID,233,VALID,0.450149,
2007-10-06, 00:21:00,VALID,916.842,VALID,0,VALID,99.999,VALID,-0.0339617,VALID,20.9387,VALID,236,VALID,0.538318,
2007-10-06, 00:22:00,VALID,916.844,VALID,0,VALID,99.8362,VALID,-0.0339617,VALID,20.8995,VALID,10,VALID,0.715909,
2007-10-06, 00:23:00,VALID,916.837,VALID,0,VALID,99.9715,VALID,0,VALID,20.8865,VALID,43,VALID,0.952567,
2007-10-06, 00:24:00,VALID,916.821,VALID,0,VALID,100,VALID,0.0169808,VALID,20.8868,VALID,43,VALID,0.610899,
2007-10-06, 00:25:00,VALID,916.811,VALID,0,VALID,100,VALID,0,VALID,20.887,VALID,43,VALID,0.143111,
2007-10-06, 00:26:00,VALID,916.806,VALID,0,VALID,100,VALID,0,VALID,20.877,VALID,43,VALID,0.219295,
2007-10-06, 00:27:00,VALID,916.79,VALID,0,VALID,100,VALID,-0.0169808,VALID,20.8897,VALID,43,VALID,0.00520833,
2007-10-06, 00:28:00,VALID,916.787,VALID,0,VALID,100,VALID,-0.0679233,VALID,20.9092,VALID,43,VALID,0,
2007-10-06, 00:29:00,VALID,916.787,VALID,0,VALID,100,VALID,-0.0509425,VALID,20.9422,VALID,43,VALID,0.00093006,
2007-10-06, 00:30:00,VALID,916.786,VALID,0,VALID,100,VALID,-0.0679233,VALID,20.926,VALID,43,VALID,0.0980283,
2007-10-06, 00:31:00,VALID,916.767,VALID,0,VALID,99.9827,VALID,-0.0339617,VALID,20.906,VALID,43,VALID,0.323785,
2007-10-06, 00:32:00,VALID,916.746,VALID,0,VALID,99.9476,VALID,-0.0339617,VALID,20.877,VALID,37,VALID,0.293146,
2007-10-06, 00:33:00,VALID,916.731,VALID,0,VALID,100,VALID,-0.0169808,VALID,20.893,VALID,33,VALID,0.152344,
2007-10-06, 00:34:00,VALID,916.729,VALID,0,VALID,100,VALID,-0.0169808,VALID,20.9252,VALID,33,VALID,0.028343,
2007-10-06, 00:35:00,VALID,916.728,VALID,0,VALID,100,VALID,0,VALID,20.9479,VALID,33,VALID,0,
2007-10-06, 00:36:00,VALID,916.738,VALID,0,VALID,100,VALID,0.0169808,VALID,20.9606,VALID,33,VALID,0,
2007-10-06, 00:37:00,VALID,916.743,VALID,0,VALID,100,VALID,0.0169808,VALID,20.9709,VALID,33,VALID,0,
2007-10-06, 00:38:00,VALID,916.739,VALID,0,VALID,100,VALID,0.0169808,VALID,20.9741,VALID,33,VALID,0,
2007-10-06, 00:39:00,VALID,916.73,VALID,0,VALID,100,VALID,0.0169808,VALID,20.9671,VALID,33,VALID,0,
2007-10-06, 00:40:00,VALID,916.729,VALID,0,VALID,100,VALID,0,VALID,20.9514,VALID,33,VALID,0,
2007-10-06, 00:41:00,VALID,916.717,VALID,0,VALID,100,VALID,-0.0169808,VALID,20.9347,VALID,33,VALID,0,
2007-10-06, 00:42:01,VALID,916.7,VALID,0,VALID,100,VALID,0.0169808,VALID,20.9506,VALID,33,VALID,0,
2007-10-06, 00:43:00,VALID,916.706,VALID,0,VALID,100,VALID,0,VALID,20.9506,VALID,33,VALID,0,
2007-10-06, 00:44:00,VALID,916.715,VALID,0,VALID,100,VALID,0,VALID,20.9512,VALID,33,VALID,0,
2007-10-06, 00:45:00,VALID,916.724,VALID,0,VALID,99.8131,VALID,0,VALID,20.899,VALID,33,VALID,0,
2007-10-06, 00:46:00,VALID,916.729,VALID,0,VALID,99.6684,VALID,0,VALID,20.8505,VALID,33,VALID,0,
2007-10-06, 00:47:01,VALID,916.701,VALID,0,VALID,99.62,VALID,-0.0169808,VALID,20.8051,VALID,33,VALID,0,
2007-10-06, 00:48:01,VALID,916.688,VALID,0,VALID,99.794,VALID,-0.0169808,VALID,20.7764,VALID,33,VALID,0.146151,
2007-10-06, 00:49:00,VALID,916.681,VALID,0,VALID,100,VALID,0.0169808,VALID,20.7919,VALID,33,VALID,0.598437,
2007-10-06, 00:50:01,VALID,916.646,VALID,0,VALID,100,VALID,0,VALID,20.8021,VALID,33,VALID,0.597128,
2007-10-06, 00:51:00,VALID,916.613,VALID,0,VALID,100,VALID,0,VALID,20.7924,VALID,33,VALID,0.597384,
2007-10-06, 00:52:00,VALID,916.584,VALID,0,VALID,100,VALID,0.0169808,VALID,20.7572,VALID,33,VALID,0.695313,
2007-10-06, 00:53:01,VALID,916.566,VALID,0,VALID,100,VALID,-0.0169808,VALID,20.731,VALID,31,VALID,0.749428,
2007-10-06, 00:54:00,VALID,916.546,VALID,0,VALID,100,VALID,0,VALID,20.7312,VALID,31,VALID,0.542683,
2007-10-06, 00:55:00,VALID,916.538,VALID,0,VALID,100,VALID,-0.0169808,VALID,20.738,VALID,31,VALID,0.354403,
2007-10-06, 00:56:01,VALID,916.535,VALID,0,VALID,100,VALID,-0.0509425,VALID,20.7312,VALID,31,VALID,0.254464,
2007-10-06, 00:57:00,VALID,916.52,VALID,0,VALID,100,VALID,-0.0169808,VALID,20.728,VALID,31,VALID,0,
2007-10-06, 00:58:00,VALID,916.518,VALID,0,VALID,100,VALID,-0.0169808,VALID,20.7312,VALID,31,VALID,0,
2007-10-06, 00:59:01,VALID,916.494,VALID,0,VALID,100,VALID,-0.0339617,VALID,20.7345,VALID,31,VALID,0.0332485,
2007-10-06, 01:00:01,VALID,916.487,VALID,0,VALID,100,VALID,-0.0679233,VALID,20.7415,VALID,31,VALID,0.198289,
2007-10-06, 01:01:00,VALID,916.456,VALID,0,VALID,100,VALID,-0.0339617,VALID,20.7215,VALID,31,VALID,0.171528,
2007-10-06, 01:02:00,VALID,916.433,VALID,0,VALID,100,VALID,-0.0339617,VALID,20.7247,VALID,31,VALID,0.00142045,
2007-10-06, 01:03:00,VALID,916.41,VALID,0,VALID,100,VALID,-0.0679233,VALID,20.7215,VALID,31,VALID,0,
2007-10-06, 01:04:00,VALID,916.401,VALID,0,VALID,100,VALID,-0.0339617,VALID,20.6963,VALID,31,VALID,0,
2007-10-06, 01:05:01,VALID,916.38,VALID,0,VALID,100,VALID,-0.0509425,VALID,20.6826,VALID,31,VALID,0.00669643,
2007-10-06, 01:06:00,VALID,916.379,VALID,0,VALID,100,VALID,-0.0339617,VALID,20.6823,VALID,31,VALID,0,
2007-10-06, 01:07:00,VALID,916.36,VALID,0,VALID,100,VALID,-0.0339617,VALID,20.689,VALID,31,VALID,0.00111607,
2007-10-06, 01:08:00,VALID,916.358,VALID,0,VALID,100,VALID,-0.0169808,VALID,20.6726,VALID,31,VALID,0,
2007-10-06, 01:09:01,VALID,916.375,VALID,0,VALID,100,VALID,-0.0339617,VALID,20.6853,VALID,31,VALID,0,
2007-10-06, 01:10:00,VALID,916.374,VALID,0,VALID,100,VALID,0.0169808,VALID,20.6988,VALID,31,VALID,0.0172602,
2007-10-06, 01:11:01,VALID,916.388,VALID,0,VALID,100,VALID,-0.0169808,VALID,20.6953,VALID,31,VALID,0.1143,
2007-10-06, 01:12:00,VALID,916.385,VALID,0,VALID,100,VALID,-0.0169808,VALID,20.6788,VALID,31,VALID,0.40625,
2007-10-06, 01:13:01,VALID,916.371,VALID,0,VALID,100,VALID,0,VALID,20.679,VALID,42,VALID,0.547805,
2007-10-06, 01:14:01,VALID,916.341,VALID,0,VALID,100,VALID,-0.0169808,VALID,20.6761,VALID,44,VALID,0.483398,
2007-10-06, 01:15:01,VALID,916.308,VALID,0,VALID,100,VALID,-0.0509425,VALID,20.6728,VALID,44,VALID,0.0849848,
2007-10-06, 01:16:01,VALID,916.275,VALID,0,VALID,100,VALID,0,VALID,20.6628,VALID,44,VALID,0,
2007-10-06, 01:17:00,VALID,916.256,VALID,0,VALID,100,VALID,-0.0339617,VALID,20.6628,VALID,44,VALID,0,
2007-10-06, 01:18:00,VALID,916.242,VALID,0,VALID,100,VALID,-0.0339617,VALID,20.6498,VALID,44,VALID,0,
2007-10-06, 01:19:01,VALID,916.213,VALID,0,VALID,100,VALID,0,VALID,20.6006,VALID,44,VALID,0,
2007-10-06, 01:20:01,VALID,916.206,VALID,0,VALID,100,VALID,0,VALID,20.5884,VALID,44,VALID,0,
2007-10-06, 01:21:01,VALID,916.2,VALID,0,VALID,100,VALID,0.0169808,VALID,20.5717,VALID,44,VALID,0,
2007-10-06, 01:22:01,VALID,916.203,VALID,0,VALID,100,VALID,-0.0169808,VALID,20.5787,VALID,44,VALID,0,
2007-10-06, 01:23:01,VALID,916.198,VALID,0,VALID,100,VALID,0,VALID,20.5784,VALID,44,VALID,0,
2007-10-06, 01:24:01,VALID,916.199,VALID,0,VALID,100,VALID,-0.0169808,VALID,20.5852,VALID,44,VALID,0,
2007-10-06, 01:25:00,VALID,916.188,VALID,0,VALID,100,VALID,-0.0169808,VALID,20.5625,VALID,44,VALID,0,
2007-10-06, 01:26:00,VALID,916.179,VALID,0,VALID,100,VALID,0,VALID,20.5495,VALID,44,VALID,0,
2007-10-06, 01:27:00,VALID,916.179,VALID,0,VALID,100,VALID,0,VALID,20.4876,VALID,44,VALID,0,
2007-10-06, 01:28:00,VALID,916.166,VALID,0,VALID,100,VALID,-0.0169808,VALID,20.4259,VALID,44,VALID,0.0154345,
2007-10-06, 01:29:00,VALID,916.156,VALID,0,VALID,100,VALID,-0.0679233,VALID,20.3999,VALID,44,VALID,0.226563,
2007-10-06, 01:30:00,VALID,916.13,VALID,0,VALID,100,VALID,0,VALID,20.3902,VALID,44,VALID,0.263579,
2007-10-06, 01:31:00,VALID,916.111,VALID,0,VALID,100,VALID,-0.0169808,VALID,20.4194,VALID,44,VALID,0.129934,
2007-10-06, 01:32:00,VALID,916.089,VALID,0,VALID,100,VALID,0,VALID,20.4708,VALID,44,VALID,0,
2007-10-06, 01:33:00,VALID,916.072,VALID,0,VALID,100,VALID,0,VALID,20.4941,VALID,44,VALID,0,
2007-10-06, 01:34:00,VALID,916.064,VALID,0,VALID,100,VALID,0,VALID,20.5,VALID,44,VALID,0,
2007-10-06, 01:35:00,VALID,916.058,VALID,0,VALID,100,VALID,0.0169808,VALID,20.5008,VALID,44,VALID,0,
2007-10-06, 01:36:00,VALID,916.032,VALID,0,VALID,100,VALID,0,VALID,20.5003,VALID,44,VALID,0,
2007-10-06, 01:37:00,VALID,916.023,VALID,0,VALID,100,VALID,-0.0169808,VALID,20.5073,VALID,44,VALID,0,
2007-10-06, 01:38:00,VALID,916.003,VALID,0,VALID,100,VALID,0,VALID,20.4941,VALID,44,VALID,0,
2007-10-06, 01:39:00,VALID,915.99,VALID,0,VALID,100,VALID,-0.0169808,VALID,20.5135,VALID,44,VALID,0,
2007-10-06, 01:40:00,VALID,915.967,VALID,0,VALID,100,VALID,-0.0169808,VALID,20.5392,VALID,44,VALID,0,
2007-10-06, 01:41:00,VALID,915.961,VALID,0,VALID,100,VALID,0,VALID,20.5587,VALID,44,VALID,0,
2007-10-06, 01:42:00,VALID,915.95,VALID,0,VALID,100,VALID,-0.0169808,VALID,20.5879,VALID,44,VALID,0,
2007-10-06, 01:43:00,VALID,915.951,VALID,0,VALID,100,VALID,0,VALID,20.6012,VALID,44,VALID,0,
2007-10-06, 01:44:00,VALID,915.941,VALID,0,VALID,100,VALID,0,VALID,20.5877,VALID,44,VALID,0,
2007-10-06, 01:45:00,VALID,915.951,VALID,0,VALID,100,VALID,0,VALID,20.5814,VALID,44,VALID,0,
2007-10-06, 01:46:00,VALID,915.932,VALID,0,VALID,100,VALID,-0.0339617,VALID,20.5522,VALID,44,VALID,0,
2007-10-06, 01:47:00,VALID,915.896,VALID,0,VALID,100,VALID,0,VALID,20.5457,VALID,58,VALID,0.192472,
2007-10-06, 01:48:00,VALID,915.878,VALID,0,VALID,100,VALID,0.0169808,VALID,20.5395,VALID,102,VALID,0.439135,
2007-10-06, 01:49:00,VALID,915.868,VALID,0,VALID,100,VALID,0,VALID,20.5298,VALID,103,VALID,0.489347,
2007-10-06, 01:50:00,VALID,915.82,VALID,0,VALID,100,VALID,-0.0339617,VALID,20.5173,VALID,105,VALID,0.54742,
2007-10-06, 01:51:00,VALID,915.807,VALID,0,VALID,100,VALID,-0.0339617,VALID,20.4843,VALID,144,VALID,0.519804,
2007-10-06, 01:52:00,VALID,915.798,VALID,0,VALID,100,VALID,0,VALID,20.4713,VALID,144,VALID,0.193979,
2007-10-06, 01:53:00,VALID,915.797,VALID,0,VALID,100,VALID,-0.0169808,VALID,20.4646,VALID,144,VALID,0.00666921,
2007-10-06, 01:54:00,VALID,915.792,VALID,0,VALID,100,VALID,-0.0169808,VALID,20.4456,VALID,144,VALID,0.0422585,
2007-10-06, 01:55:00,VALID,915.795,VALID,0,VALID,100,VALID,-0.0509425,VALID,20.4035,VALID,138,VALID,0.437872,
2007-10-06, 01:56:00,VALID,915.782,VALID,0,VALID,100,VALID,-0.0509425,VALID,20.3832,VALID,135,VALID,0.392887,
2007-10-06, 01:57:00,VALID,915.778,VALID,0,VALID,100,VALID,-0.0169808,VALID,20.3775,VALID,135,VALID,0.458651,
2007-10-06, 01:58:00,VALID,915.773,VALID,0,VALID,100,VALID,0,VALID,20.345,VALID,135,VALID,0.359722,
2007-10-06, 01:59:00,VALID,915.756,VALID,0,VALID,100,VALID,-0.0169808,VALID,20.3253,VALID,135,VALID,0.199805,
2007-10-06, 02:00:00,VALID,915.736,VALID,0,VALID,100,VALID,0,VALID,20.3445,VALID,135,VALID,0,
2007-10-06, 02:01:00,VALID,915.738,VALID,0,VALID,100,VALID,-0.0339617,VALID,20.374,VALID,135,VALID,0,
2007-10-06, 02:02:00,VALID,915.717,VALID,0,VALID,100,VALID,-0.0339617,VALID,20.3967,VALID,135,VALID,0,
2007-10-06, 02:03:00,VALID,915.725,VALID,0,VALID,100,VALID,-0.0339617,VALID,20.4129,VALID,135,VALID,0,
2007-10-06, 02:04:00,VALID,915.703,VALID,0,VALID,100,VALID,-0.0169808,VALID,20.4424,VALID,135,VALID,0,
2007-10-06, 02:05:00,VALID,915.697,VALID,0,VALID,100,VALID,-0.0169808,VALID,20.4451,VALID,129,VALID,0.267829,
2007-10-06, 02:06:00,VALID,915.684,VALID,0,VALID,100,VALID,0,VALID,20.4311,VALID,78,VALID,0.552401,
2007-10-06, 02:07:00,VALID,915.657,VALID,0,VALID,100,VALID,-0.0169808,VALID,20.4189,VALID,72,VALID,0.254179,
2007-10-06, 02:08:00,VALID,915.644,VALID,0,VALID,100,VALID,-0.0509425,VALID,20.4451,VALID,72,VALID,0.000400641,
2007-10-06, 02:09:00,VALID,915.625,VALID,0,VALID,100,VALID,-0.0339617,VALID,20.4384,VALID,67,VALID,0.295873,
2007-10-06, 02:10:00,VALID,915.614,VALID,0,VALID,100,VALID,0.0169808,VALID,20.4581,VALID,43,VALID,0.514844,
2007-10-06, 02:11:00,VALID,915.605,VALID,0,VALID,100,VALID,0,VALID,20.4578,VALID,26,VALID,0.358232,
2007-10-06, 02:12:00,VALID,915.597,VALID,0,VALID,100,VALID,0,VALID,20.4906,VALID,297,VALID,0.15282,
2007-10-06, 02:13:00,VALID,915.585,VALID,0,VALID,100,VALID,0,VALID,20.5095,VALID,297,VALID,0.0181108,
2007-10-06, 02:14:00,VALID,915.572,VALID,0,VALID,100,VALID,0,VALID,20.5422,VALID,297,VALID,0.0243676,
2007-10-06, 02:15:00,VALID,915.544,VALID,0,VALID,100,VALID,-0.0169808,VALID,20.5647,VALID,297,VALID,0.0684956,
2007-10-06, 02:16:00,VALID,915.538,VALID,0,VALID,100,VALID,-0.0169808,VALID,20.5944,VALID,297,VALID,0.168155,
2007-10-06, 02:17:00,VALID,915.533,VALID,0,VALID,100,VALID,-0.0339617,VALID,20.6206,VALID,300,VALID,0.413885,
2007-10-06, 02:18:00,VALID,915.548,VALID,0,VALID,100,VALID,-0.0339617,VALID,20.6363,VALID,316,VALID,0.5,
2007-10-06, 02:19:00,VALID,915.55,VALID,0,VALID,100,VALID,-0.0169808,VALID,20.6396,VALID,32,VALID,0.872743,
2007-10-06, 02:20:00,VALID,915.586,VALID,0,VALID,100,VALID,-0.0169808,VALID,20.6041,VALID,27,VALID,0.78452,
2007-10-06, 02:21:00,VALID,915.607,VALID,0,VALID,100,VALID,-0.0169808,VALID,20.5979,VALID,27,VALID,0.487749,
2007-10-06, 02:22:00,VALID,915.614,VALID,0,VALID,100,VALID,-0.0339617,VALID,20.5817,VALID,27,VALID,0.294457,
2007-10-06, 02:23:00,VALID,915.606,VALID,0,VALID,100,VALID,-0.0509425,VALID,20.5657,VALID,27,VALID,0.360973,
2007-10-06, 02:24:00,VALID,915.609,VALID,0,VALID,100,VALID,-0.0339617,VALID,20.5592,VALID,27,VALID,0.435404,
2007-10-06, 02:25:00,VALID,915.599,VALID,0,VALID,100,VALID,-0.0169808,VALID,20.5557,VALID,16,VALID,0.495536,
2007-10-06, 02:26:00,VALID,915.596,VALID,0,VALID,100,VALID,-0.0509425,VALID,20.5914,VALID,5,VALID,0.509487,
2007-10-06, 02:27:00,VALID,915.616,VALID,0,VALID,100,VALID,-0.0339617,VALID,20.5982,VALID,7,VALID,0.112909,
2007-10-06, 02:28:00,VALID,915.634,VALID,0,VALID,100,VALID,-0.0509425,VALID,20.5914,VALID,16,VALID,0.44566,
2007-10-06, 02:29:00,VALID,915.665,VALID,0,VALID,100,VALID,-0.0339617,VALID,20.5949,VALID,16,VALID,0.748197,
2007-10-06, 02:30:00,VALID,915.701,VALID,0,VALID,100,VALID,-0.0339617,VALID,20.6009,VALID,24,VALID,0.691034,
2007-10-06, 02:31:00,VALID,915.734,VALID,0,VALID,100,VALID,-0.0339617,VALID,20.5712,VALID,26,VALID,0.688244,
2007-10-06, 02:32:00,VALID,915.753,VALID,0,VALID,100,VALID,-0.0679233,VALID,20.5457,VALID,25,VALID,0.827762,
2007-10-06, 02:33:00,VALID,915.76,VALID,0,VALID,100,VALID,-0.0339617,VALID,20.5333,VALID,16,VALID,0.848514,
2007-10-06, 02:34:00,VALID,915.766,VALID,0,VALID,100,VALID,-0.0169808,VALID,20.4806,VALID,14,VALID,0.869191,
2007-10-06, 02:35:00,VALID,915.765,VALID,0,VALID,100,VALID,-0.0339617,VALID,20.4521,VALID,18,VALID,1.07478,
2007-10-06, 02:36:00,VALID,915.759,VALID,0,VALID,100,VALID,0,VALID,20.4292,VALID,17,VALID,1.24512,
2007-10-06, 02:37:00,VALID,915.754,VALID,0,VALID,100,VALID,-0.0509425,VALID,20.4059,VALID,28,VALID,1.41134,
2007-10-06, 02:38:00,VALID,915.76,VALID,0,VALID,100,VALID,-0.0509425,VALID,20.4289,VALID,27,VALID,1.11168,
2007-10-06, 02:39:00,VALID,915.754,VALID,0,VALID,100,VALID,-0.0169808,VALID,20.4094,VALID,30,VALID,1.1849,
2007-10-06, 02:40:00,VALID,915.77,VALID,0,VALID,100,VALID,-0.0169808,VALID,20.3964,VALID,25,VALID,1.24982,
2007-10-06, 02:41:00,VALID,915.801,VALID,0,VALID,100,VALID,-0.0169808,VALID,20.3805,VALID,29,VALID,1.30878,
2007-10-06, 02:42:00,VALID,915.833,VALID,0,VALID,100,VALID,-0.0169808,VALID,20.3572,VALID,19,VALID,1.15252,
2007-10-06, 02:43:00,VALID,915.857,VALID,0,VALID,100,VALID,-0.0509425,VALID,20.3348,VALID,15,VALID,1.16497,
2007-10-06, 02:44:00,VALID,915.875,VALID,0,VALID,100,VALID,-0.0509425,VALID,20.3223,VALID,21,VALID,1.53838,
2007-10-06, 02:45:00,VALID,915.876,VALID,0,VALID,100,VALID,-0.0169808,VALID,20.2794,VALID,29,VALID,1.47729,
2007-10-06, 02:46:00,VALID,915.889,VALID,0,VALID,100,VALID,-0.0169808,VALID,20.2761,VALID,343,VALID,0.966346,
2007-10-06, 02:47:00,VALID,915.888,VALID,0,VALID,100,VALID,-0.0169808,VALID,20.2729,VALID,7,VALID,1.33613,
2007-10-06, 02:48:00,VALID,915.874,VALID,0,VALID,100,VALID,0,VALID,20.2796,VALID,20,VALID,1.42318,
2007-10-06, 02:49:00,VALID,915.887,VALID,0,VALID,100,VALID,-0.0169808,VALID,20.2929,VALID,25,VALID,1.01563,
2007-10-06, 02:50:00,VALID,915.894,VALID,0,VALID,100,VALID,-0.0169808,VALID,20.2991,VALID,17,VALID,1.11701,
2007-10-06, 02:51:00,VALID,915.92,VALID,0,VALID,100,VALID,0,VALID,20.3053,VALID,353,VALID,0.587843,
2007-10-06, 02:52:00,VALID,915.934,VALID,0,VALID,100,VALID,-0.0509425,VALID,20.3118,VALID,9,VALID,0.532012,
2007-10-06, 02:53:00,VALID,915.936,VALID,0,VALID,100,VALID,-0.0679233,VALID,20.3315,VALID,11,VALID,0.62609,
2007-10-06, 02:54:00,VALID,915.933,VALID,0,VALID,100,VALID,-0.0849042,VALID,20.3415,VALID,7,VALID,0.460526,
2007-10-06, 02:55:00,VALID,915.929,VALID,0,VALID,100,VALID,-0.0849042,VALID,20.3545,VALID,27,VALID,0.325893,
2007-10-06, 02:56:00,VALID,915.91,VALID,0,VALID,100,VALID,-0.0679233,VALID,20.3742,VALID,27,VALID,0.493641,
2007-10-06, 02:57:00,VALID,915.914,VALID,0,VALID,100,VALID,-0.0169808,VALID,20.3867,VALID,27,VALID,0.410528,
2007-10-06, 02:58:00,VALID,915.906,VALID,0,VALID,100,VALID,-0.0509425,VALID,20.3964,VALID,27,VALID,0.0952744,
2007-10-06, 02:59:00,VALID,915.894,VALID,0,VALID,100,VALID,-0.0339617,VALID,20.3999,VALID,27,VALID,0,
2007-10-06, 03:00:00,VALID,915.894,VALID,0,VALID,100,VALID,-0.0169808,VALID,20.3932,VALID,27,VALID,0,
2007-10-06, 03:01:00,VALID,915.883,VALID,0,VALID,100,VALID,-0.0169808,VALID,20.3832,VALID,27,VALID,0,
2007-10-06, 03:02:00,VALID,915.882,VALID,0,VALID,100,VALID,-0.0679233,VALID,20.3735,VALID,27,VALID,0,
2007-10-06, 03:03:00,VALID,915.909,VALID,0,VALID,100,VALID,-0.0339617,VALID,20.367,VALID,27,VALID,0.146621,
2007-10-06, 03:04:00,VALID,915.927,VALID,0,VALID,100,VALID,-0.0169808,VALID,20.341,VALID,27,VALID,0.0428779,
2007-10-06, 03:05:00,VALID,915.945,VALID,0,VALID,100,VALID,-0.0169808,VALID,20.3183,VALID,27,VALID,0.191311,
2007-10-06, 03:06:00,VALID,915.965,VALID,0,VALID,100,VALID,-0.0339617,VALID,20.2794,VALID,57,VALID,0.39226,
2007-10-06, 03:07:00,VALID,915.983,VALID,0,VALID,100,VALID,-0.0679233,VALID,20.2404,VALID,61,VALID,0.207961,
2007-10-06, 03:08:00,VALID,915.986,VALID,0,VALID,100,VALID,-0.0679233,VALID,20.2245,VALID,61,VALID,0.198103,
2007-10-06, 03:09:00,VALID,915.98,VALID,0,VALID,100,VALID,-0.0339617,VALID,20.2147,VALID,62,VALID,0.489025,
2007-10-06, 03:10:00,VALID,915.975,VALID,0,VALID,100,VALID,-0.0169808,VALID,20.2077,VALID,130,VALID,0.6379,
2007-10-06, 03:11:00,VALID,915.955,VALID,0,VALID,100,VALID,-0.0339617,VALID,20.1947,VALID,161,VALID,0.665963,
2007-10-06, 03:12:00,VALID,915.943,VALID,0,VALID,100,VALID,-0.0509425,VALID,20.2145,VALID,162,VALID,0.672619,
2007-10-06, 03:13:00,VALID,915.935,VALID,0,VALID,100,VALID,-0.0339617,VALID,20.2042,VALID,162,VALID,0.455592,
2007-10-06, 03:14:00,VALID,915.933,VALID,0,VALID,100,VALID,-0.0339617,VALID,20.2142,VALID,162,VALID,0.231136,
2007-10-06, 03:15:00,VALID,915.943,VALID,0,VALID,100,VALID,-0.0339617,VALID,20.2212,VALID,162,VALID,0.00520833,
2007-10-06, 03:16:00,VALID,915.959,VALID,0,VALID,100,VALID,-0.0849042,VALID,20.2342,VALID,162,VALID,0,
2007-10-06, 03:17:00,VALID,915.962,VALID,0,VALID,100,VALID,-0.0849042,VALID,20.2339,VALID,162,VALID,0,
2007-10-06, 03:18:00,VALID,915.974,VALID,0,VALID,100,VALID,-0.0509425,VALID,20.2474,VALID,162,VALID,0,
2007-10-06, 03:19:00,VALID,915.966,VALID,0,VALID,100,VALID,-0.0169808,VALID,20.2669,VALID,162,VALID,0,
2007-10-06, 03:20:00,VALID,915.967,VALID,0,VALID,100,VALID,-0.0849042,VALID,20.2566,VALID,162,VALID,0,
2007-10-06, 03:21:00,VALID,915.965,VALID,0,VALID,100,VALID,-0.0679233,VALID,20.2669,VALID,162,VALID,0,
2007-10-06, 03:22:00,VALID,915.969,VALID,0,VALID,100,VALID,-0.0679233,VALID,20.2729,VALID,162,VALID,0,
2007-10-06, 03:23:00,VALID,915.964,VALID,0,VALID,100,VALID,-0.0679233,VALID,20.2799,VALID,162,VALID,0,
2007-10-06, 03:24:00,VALID,915.971,VALID,0,VALID,100,VALID,-0.0849042,VALID,20.2569,VALID,162,VALID,0,
2007-10-06, 03:25:00,VALID,915.98,VALID,0,VALID,100,VALID,-0.101885,VALID,20.2474,VALID,162,VALID,0,
2007-10-06, 03:26:00,VALID,915.975,VALID,0,VALID,100,VALID,-0.0679233,VALID,20.2509,VALID,162,VALID,0,
2007-10-06, 03:27:00,VALID,915.967,VALID,0,VALID,100,VALID,-0.0849042,VALID,20.2537,VALID,162,VALID,0,
2007-10-06, 03:28:00,VALID,915.958,VALID,0,VALID,100,VALID,0.0169808,VALID,20.2551,VALID,162,VALID,0,
2007-10-06, 03:29:00,VALID,915.936,VALID,0,VALID,100,VALID,0.0169808,VALID,20.2843,VALID,162,VALID,0.0446948,
2007-10-06, 03:30:00,VALID,915.933,VALID,0,VALID,100,VALID,0.0339617,VALID,20.337,VALID,162,VALID,0.298692,
2007-10-06, 03:31:00,VALID,915.919,VALID,0,VALID,100,VALID,0,VALID,20.3525,VALID,162,VALID,0.175868,
2007-10-06, 03:32:00,VALID,915.92,VALID,0,VALID,100,VALID,0.0169808,VALID,20.3757,VALID,162,VALID,0.341273,
2007-10-06, 03:33:00,VALID,915.931,VALID,0,VALID,100,VALID,0.0679233,VALID,20.4046,VALID,162,VALID,0.140816,
2007-10-06, 03:34:00,VALID,915.943,VALID,0,VALID,100,VALID,0.0679233,VALID,20.4174,VALID,162,VALID,0.0431548,
2007-10-06, 03:35:00,VALID,915.94,VALID,0,VALID,100,VALID,0.0169808,VALID,20.4306,VALID,162,VALID,0,
2007-10-06, 03:36:00,VALID,915.952,VALID,0,VALID,100,VALID,0.0849042,VALID,20.4403,VALID,162,VALID,0,
2007-10-06, 03:37:00,VALID,915.966,VALID,0,VALID,100,VALID,-0.0509425,VALID,20.4349,VALID,162,VALID,0,
2007-10-06, 03:38:00,VALID,915.974,VALID,0,VALID,100,VALID,-0.0679233,VALID,20.4386,VALID,162,VALID,0,
2007-10-06, 03:39:00,VALID,915.965,VALID,0,VALID,100,VALID,0,VALID,20.4289,VALID,162,VALID,0,
2007-10-06, 03:40:00,VALID,915.975,VALID,0,VALID,100,VALID,-0.0169808,VALID,20.3967,VALID,162,VALID,0,
2007-10-06, 03:41:00,VALID,915.989,VALID,0,VALID,100,VALID,-0.0339617,VALID,20.37,VALID,162,VALID,0,
2007-10-06, 03:42:00,VALID,915.999,VALID,0,VALID,100,VALID,-0.0339617,VALID,20.3473,VALID,162,VALID,0,
2007-10-06, 03:43:00,VALID,916.001,VALID,0,VALID,100,VALID,-0.0509425,VALID,20.3243,VALID,162,VALID,0,
2007-10-06, 03:44:00,VALID,916.002,VALID,0,VALID,100,VALID,-0.0339617,VALID,20.3081,VALID,162,VALID,0,